Time,TemperatureF,DewpointF,PressureIn,WindDirection,WindDirectionDegrees,WindSpeedMPH,WindSpeedGustMPH,Humidity,HourlyPrecipIn,Conditions,Clouds,dailyrainin,SoftwareType,DateUTC
2013-02-13 00:00:00,54.5,52.0,29.92,WNW,297,1.0,10.0,91,0.00,,,0.21,weatherlink.com 1.10,2013-02-13 06:00:00,
2013-02-13 00:16:00,54.6,52.0,29.93,WNW,298,5.0,7.0,90,0.00,,,0.00,weatherlink.com 1.10,2013-02-13 06:16:00,
2013-02-13 00:31:00,54.7,52.0,29.95,NW,319,6.0,10.0,89,0.00,,,0.00,weatherlink.com 1.10,2013-02-13 06:31:00,
2013-02-13 00:46:00,54.6,51.0,29.92,WNW,294,3.0,8.0,89,0.00,,,0.00,weatherlink.com 1.10,2013-02-13 06:46:00,
2013-02-13 01:01:00,54.6,51.0,29.96,West,264,1.0,6.0,89,0.00,,,0.00,weatherlink.com 1.10,2013-02-13 07:01:00,
2013-02-13 01:16:00,54.5,51.0,29.98,WNW,301,5.0,12.0,87,0.00,,,0.00,weatherlink.com 1.10,2013-02-13 07:16:00,
2013-02-13 01:31:00,54.5,51.0,29.99,WNW,297,4.0,10.0,87,0.00,,,0.00,weatherlink.com 1.10,2013-02-13 07:31:00,
2013-02-13 01:46:00,54.2,51.0,29.98,NW,307,2.0,6.0,88,0.00,,,0.00,weatherlink.com 1.10,2013-02-13 07:46:00,
2013-02-13 02:01:00,54.1,51.0,29.98,NW,319,3.0,5.0,89,0.00,,,0.00,weatherlink.com 1.10,2013-02-13 08:01:00,
2013-02-13 02:16:00,53.9,51.0,29.98,WNW,291,2.0,4.0,90,0.00,,,0.00,weatherlink.com 1.10,2013-02-13 08:16:00,
2013-02-13 02:31:00,53.5,49.0,29.98,WNW,302,7.0,14.0,84,0.00,,,0.00,weatherlink.com 1.10,2013-02-13 08:31:00,
2013-02-13 02:46:00,53.1,48.0,29.98,NW,307,9.0,16.0,82,0.00,,,0.00,weatherlink.com 1.10,2013-02-13 08:46:00,
2013-02-13 03:01:00,52.8,48.0,30.00,WNW,297,5.0,13.0,83,0.00,,,0.00,weatherlink.com 1.10,2013-02-13 09:01:00,
2013-02-13 03:16:00,52.7,49.0,30.00,WNW,292,6.0,10.0,86,0.00,,,0.00,weatherlink.com 1.10,2013-02-13 09:16:00,
2013-02-13 03:31:00,52.4,47.0,30.01,NW,304,6.0,17.0,83,0.00,,,0.00,weatherlink.com 1.10,2013-02-13 09:31:00,
2013-02-13 03:46:00,52.0,47.0,29.99,NW,304,10.0,13.0,83,0.00,,,0.00,weatherlink.com 1.10,2013-02-13 09:46:00,
2013-02-13 04:01:00,51.5,47.0,30.00,NNW,327,3.0,14.0,85,0.00,,,0.00,weatherlink.com 1.10,2013-02-13 10:01:00,
2013-02-13 04:16:00,51.1,47.0,30.00,WNW,293,10.0,13.0,86,0.01,,,0.01,weatherlink.com 1.10,2013-02-13 10:16:00,
2013-02-13 04:30:00,50.5,46.0,29.99,WNW,298,5.0,13.0,86,0.01,,,0.01,weatherlink.com 1.10,2013-02-13 10:30:00,
2013-02-13 04:45:00,50.2,46.0,30.00,WNW,292,5.0,11.0,86,0.01,,,0.01,weatherlink.com 1.10,2013-02-13 10:45:00,
2013-02-13 05:00:00,49.6,46.0,29.99,North,351,0.0,9.0,88,0.03,,,0.03,weatherlink.com 1.10,2013-02-13 11:00:00,
2013-02-13 05:15:00,49.2,46.0,30.00,NW,309,5.0,8.0,89,0.02,,,0.03,weatherlink.com 1.10,2013-02-13 11:15:00,
2013-02-13 05:30:00,49.2,45.0,30.01,WNW,285,6.0,10.0,85,0.02,,,0.03,weatherlink.com 1.10,2013-02-13 11:30:00,
2013-02-13 05:46:00,49.1,45.0,30.02,NW,326,8.0,11.0,85,0.02,,,0.03,weatherlink.com 1.10,2013-02-13 11:46:00,
2013-02-13 06:00:00,49.0,45.0,30.03,NW,318,3.0,14.0,85,0.00,,,0.03,weatherlink.com 1.10,2013-02-13 12:00:00,
2013-02-13 06:15:00,48.9,44.0,30.02,North,356,6.0,10.0,84,0.00,,,0.03,weatherlink.com 1.10,2013-02-13 12:15:00,
2013-02-13 06:30:00,48.8,44.0,30.03,WNW,293,6.0,11.0,84,0.00,,,0.03,weatherlink.com 1.10,2013-02-13 12:30:00,
2013-02-13 06:45:00,48.7,44.0,30.05,NW,315,4.0,9.0,85,0.00,,,0.03,weatherlink.com 1.10,2013-02-13 12:45:00,
2013-02-13 07:00:00,48.7,44.0,30.06,WNW,288,4.0,12.0,85,0.00,,,0.03,weatherlink.com 1.10,2013-02-13 13:00:00,
2013-02-13 07:15:00,48.7,44.0,30.07,WNW,291,3.0,11.0,84,0.00,,,0.03,weatherlink.com 1.10,2013-02-13 13:15:00,
2013-02-13 07:30:00,48.5,44.0,30.07,WNW,298,5.0,10.0,85,0.00,,,0.03,weatherlink.com 1.10,2013-02-13 13:30:00,
2013-02-13 07:45:00,48.5,44.0,30.09,WNW,302,6.0,9.0,84,0.00,,,0.03,weatherlink.com 1.10,2013-02-13 13:45:00,
2013-02-13 08:00:00,48.5,44.0,30.07,North,353,4.0,13.0,84,0.00,,,0.03,weatherlink.com 1.10,2013-02-13 14:00:00,
2013-02-13 08:15:00,48.6,44.0,30.07,NNW,345,6.0,16.0,83,0.00,,,0.03,weatherlink.com 1.10,2013-02-13 14:15:00,
2013-02-13 08:30:00,48.7,44.0,30.10,NW,311,6.0,13.0,83,0.00,,,0.03,weatherlink.com 1.10,2013-02-13 14:30:00,
2013-02-13 08:45:00,48.5,44.0,30.06,North,356,9.0,13.0,83,0.00,,,0.03,weatherlink.com 1.10,2013-02-13 14:45:00,
2013-02-13 09:00:00,48.7,44.0,30.05,NNW,347,6.0,16.0,83,0.00,,,0.03,weatherlink.com 1.10,2013-02-13 15:00:00,
2013-02-13 09:15:00,48.8,44.0,30.05,NW,305,8.0,16.0,83,0.00,,,0.03,weatherlink.com 1.10,2013-02-13 15:15:00,
2013-02-13 09:30:00,49.3,43.0,30.06,NNE,23,10.0,21.0,80,0.00,,,0.03,weatherlink.com 1.10,2013-02-13 15:30:00,
2013-02-13 09:45:00,49.6,44.0,30.05,North,358,10.0,21.0,80,0.00,,,0.03,weatherlink.com 1.10,2013-02-13 15:45:00,
2013-02-13 10:00:00,49.7,43.0,30.08,WNW,301,13.0,21.0,78,0.00,,,0.03,weatherlink.com 1.10,2013-02-13 16:00:00,
2013-02-13 10:15:00,49.8,43.0,30.06,NNW,328,8.0,14.0,77,0.00,,,0.03,weatherlink.com 1.10,2013-02-13 16:15:00,
2013-02-13 10:30:00,49.9,42.0,30.06,NW,323,13.0,22.0,74,0.00,,,0.03,weatherlink.com 1.10,2013-02-13 16:30:00,
2013-02-13 10:45:00,50.4,42.0,30.06,NNW,333,9.0,26.0,74,0.00,,,0.03,weatherlink.com 1.10,2013-02-13 16:45:00,
2013-02-13 11:00:00,51.2,42.0,30.07,NNE,17,4.0,18.0,71,0.00,,,0.03,weatherlink.com 1.10,2013-02-13 17:00:00,
2013-02-13 11:15:00,51.4,42.0,30.05,NE,34,17.0,20.0,70,0.00,,,0.03,weatherlink.com 1.10,2013-02-13 17:15:00,
2013-02-13 11:30:00,51.8,43.0,30.05,NW,325,4.0,20.0,71,0.00,,,0.03,weatherlink.com 1.10,2013-02-13 17:30:00,
2013-02-13 11:45:00,52.8,43.0,30.05,NW,325,11.0,21.0,69,0.00,,,0.03,weatherlink.com 1.10,2013-02-13 17:45:00,
2013-02-13 12:00:00,54.0,43.0,30.04,NNE,19,10.0,18.0,67,0.00,,,0.03,weatherlink.com 1.10,2013-02-13 18:00:00,
2013-02-13 12:15:00,54.6,42.0,30.04,North,1,21.0,21.0,63,0.00,,,0.03,weatherlink.com 1.10,2013-02-13 18:15:00,
2013-02-13 12:30:00,55.3,42.0,30.04,North,356,12.0,17.0,62,0.00,,,0.03,weatherlink.com 1.10,2013-02-13 18:30:00,
2013-02-13 12:45:00,56.2,42.0,30.05,WSW,248,5.0,15.0,60,0.00,,,0.03,weatherlink.com 1.10,2013-02-13 18:45:00,
2013-02-13 13:00:00,56.2,42.0,30.05,NNW,337,12.0,15.0,58,0.00,,,0.03,weatherlink.com 1.10,2013-02-13 19:00:00,
2013-02-13 13:15:00,56.3,43.0,30.03,North,352,10.0,14.0,60,0.00,,,0.03,weatherlink.com 1.10,2013-02-13 19:15:00,
2013-02-13 13:30:00,56.9,43.0,30.02,NW,326,6.0,14.0,59,0.00,,,0.03,weatherlink.com 1.10,2013-02-13 19:30:00,
2013-02-13 13:45:00,57.3,42.0,30.02,North,352,2.0,12.0,57,0.00,,,0.03,weatherlink.com 1.10,2013-02-13 19:45:00,
2013-02-13 14:00:00,58.1,42.0,30.01,NNW,332,11.0,17.0,56,0.00,,,0.03,weatherlink.com 1.10,2013-02-13 20:00:00,
2013-02-13 14:15:00,58.2,42.0,30.00,NNW,332,7.0,13.0,55,0.00,,,0.03,weatherlink.com 1.10,2013-02-13 20:15:00,
2013-02-13 14:30:00,58.3,42.0,30.01,NNE,12,9.0,22.0,55,0.00,,,0.03,weatherlink.com 1.10,2013-02-13 20:30:00,
2013-02-13 14:45:00,58.5,42.0,30.00,NNW,347,5.0,12.0,54,0.00,,,0.03,weatherlink.com 1.10,2013-02-13 20:45:00,
2013-02-13 15:00:00,59.3,43.0,30.00,SW,226,1.0,9.0,54,0.00,,,0.03,weatherlink.com 1.10,2013-02-13 21:00:00,
2013-02-13 15:15:00,59.2,42.0,30.01,NNW,346,12.0,15.0,52,0.00,,,0.03,weatherlink.com 1.10,2013-02-13 21:15:00,
2013-02-13 15:30:00,58.6,42.0,30.01,North,358,13.0,13.0,55,0.00,,,0.03,weatherlink.com 1.10,2013-02-13 21:30:00,
2013-02-13 15:45:00,58.3,42.0,30.01,North,350,8.0,12.0,54,0.00,,,0.03,weatherlink.com 1.10,2013-02-13 21:45:00,
2013-02-13 16:00:00,58.0,41.0,30.01,NNE,29,10.0,15.0,54,0.00,,,0.03,weatherlink.com 1.10,2013-02-13 22:00:00,
2013-02-13 16:15:00,57.9,41.0,30.02,North,349,5.0,12.0,54,0.00,,,0.03,weatherlink.com 1.10,2013-02-13 22:15:00,
2013-02-13 16:30:00,57.7,40.0,30.02,NNE,20,8.0,13.0,51,0.00,,,0.03,weatherlink.com 1.10,2013-02-13 22:30:00,
2013-02-13 16:45:00,57.4,41.0,30.02,NNW,336,4.0,11.0,55,0.00,,,0.03,weatherlink.com 1.10,2013-02-13 22:45:00,
2013-02-13 17:00:00,57.0,40.0,30.02,North,1,5.0,11.0,53,0.00,,,0.03,weatherlink.com 1.10,2013-02-13 23:00:00,
2013-02-13 17:15:00,56.5,40.0,30.02,North,11,11.0,13.0,54,0.00,,,0.03,weatherlink.com 1.10,2013-02-13 23:15:00,
2013-02-13 17:30:00,55.8,40.0,30.03,NNE,29,5.0,13.0,55,0.00,,,0.03,weatherlink.com 1.10,2013-02-13 23:30:00,
2013-02-13 17:45:00,55.2,41.0,30.03,NE,34,5.0,12.0,58,0.00,,,0.03,weatherlink.com 1.10,2013-02-13 23:45:00,
2013-02-13 17:59:00,54.1,41.0,30.04,NNE,19,4.0,10.0,61,0.00,,,0.03,weatherlink.com 1.10,2013-02-13 23:59:00,
2013-02-13 18:14:00,53.1,41.0,30.04,NE,43,4.0,6.0,63,0.00,,,0.03,weatherlink.com 1.10,2013-02-14 00:14:00,
2013-02-13 18:29:00,52.4,41.0,30.05,North,11,2.0,7.0,65,0.00,,,0.03,weatherlink.com 1.10,2013-02-14 00:29:00,
2013-02-13 18:44:00,51.5,41.0,30.05,North,358,2.0,4.0,67,0.00,,,0.03,weatherlink.com 1.10,2013-02-14 00:44:00,
2013-02-13 18:59:00,50.8,41.0,30.06,NNE,20,2.0,3.0,69,0.00,,,0.03,weatherlink.com 1.10,2013-02-14 00:59:00,
2013-02-13 19:14:00,50.2,41.0,30.06,North,353,1.0,2.0,71,0.00,,,0.03,weatherlink.com 1.10,2013-02-14 01:14:00,
2013-02-13 19:29:00,49.9,41.0,30.07,North,8,1.0,3.0,72,0.00,,,0.03,weatherlink.com 1.10,2013-02-14 01:29:00,
2013-02-13 19:44:00,49.5,41.0,30.07,NNE,23,1.0,4.0,73,0.00,,,0.03,weatherlink.com 1.10,2013-02-14 01:44:00,
2013-02-13 19:58:00,49.1,41.0,30.07,NNE,12,1.0,2.0,74,0.00,,,0.03,weatherlink.com 1.10,2013-02-14 01:58:00,
2013-02-13 20:13:00,48.4,42.0,30.07,NNE,18,2.0,2.0,77,0.00,,,0.03,weatherlink.com 1.10,2013-02-14 02:13:00,
2013-02-13 20:28:00,48.1,42.0,30.08,NNE,32,4.0,4.0,78,0.00,,,0.03,weatherlink.com 1.10,2013-02-14 02:28:00,
2013-02-13 20:43:00,47.9,41.0,30.08,NNE,25,4.0,4.0,78,0.00,,,0.03,weatherlink.com 1.10,2013-02-14 02:43:00,
2013-02-13 20:58:00,47.8,41.0,30.08,NE,41,1.0,2.0,78,0.00,,,0.03,weatherlink.com 1.10,2013-02-14 02:58:00,
2013-02-13 21:13:00,47.5,41.0,30.08,NNE,23,1.0,3.0,79,0.00,,,0.03,weatherlink.com 1.10,2013-02-14 03:13:00,
2013-02-13 21:28:00,47.3,41.0,30.08,NNE,16,4.0,5.0,79,0.00,,,0.03,weatherlink.com 1.10,2013-02-14 03:28:00,
2013-02-13 21:43:00,47.1,41.0,30.09,North,359,2.0,7.0,79,0.00,,,0.03,weatherlink.com 1.10,2013-02-14 03:43:00,
2013-02-13 21:58:00,46.5,41.0,30.09,North,11,2.0,5.0,81,0.00,,,0.03,weatherlink.com 1.10,2013-02-14 03:58:00,
2013-02-13 22:13:00,46.1,41.0,30.09,North,353,1.0,4.0,82,0.00,,,0.03,weatherlink.com 1.10,2013-02-14 04:13:00,
2013-02-13 22:44:00,45.0,41.0,30.09,NE,41,1.0,4.0,85,0.00,,,0.03,weatherlink.com 1.10,2013-02-14 04:44:00,
2013-02-13 23:14:00,44.0,40.0,30.09,NNE,16,1.0,2.0,87,0.00,,,0.03,weatherlink.com 1.10,2013-02-14 05:14:00,
2013-02-13 23:29:00,43.5,40.0,30.09,NE,36,0.0,1.0,88,0.00,,,0.03,weatherlink.com 1.10,2013-02-14 05:29:00,
2013-02-13 23:44:00,42.9,40.0,30.09,North,4,0.0,1.0,89,0.00,,,0.03,weatherlink.com 1.10,2013-02-14 05:44:00,
2013-02-13 23:59:00,42.4,40.0,30.09,North,5,0.0,1.0,91,0.00,,,0.03,weatherlink.com 1.10,2013-02-14 05:59:00,